Probability
0 0 0 0 0 0 0 0 0 0 0 0 0 0 0 0 0 0 0 0 0 0 0 0 0 0 0 0 0 0 0 0 0 0 0 0 1 1 1 0 0 0 0
0 0 0 0 0 0 0 0 0 0 0 0 0 0 0 0 0 0 0 0 0 0 0 0 0 0 0 0 0 0 0 0 0 0 0 0 0 0 0 0 0 0 0
0 0 0 0 0 0 0 0 0 0 0 0 0 0 0 0 0 0 0 0 0 0 0 0 0 0 0 0 0 0 0 0 0 0 0 0 0 0 0 0 0 0 0
0 0 0 0 0 0 0 0 0 0 0 0 0 0 0 0 0 0 0 0 0 0 0 0 0 0 0 0 0 0 0 0 0 0 0 0 0 0 0 0 0 0 0
0 0 0 0 0 0 0 0 0 0 0 0 0 0 0 0 0 0 0 0 0 0 0 0 0 0 0 0 0 0 0 0 0 0 0 0 0 0 0 0 0 0 0
0 0 0 0 0 0 0 0 0 0 0 0 0 0 0 0 0 0 0 0 0 0 0 0 0 0 0 0 0 0 0 0 0 0 0 0 0 0 0 0 0 0 0
0 0 0 0 0 0 0 0 0 0 0 0 0 0 0 0 0 0 0 0 0 0 0 0 0 0 0 0 0 0 0 0 0 0 0 0 0 0 0 0 0 0 0
0 0 0 0 0 0 0 0 0 0 0 0 0 0 0 0 0 0 0 0 0 0 0 0 0 0 0 0 0 0 0 0 0 0 0 0 0 0 0 0 0 0 0
0 0 0 0 0 0 0 0 0 0 0 0 0 0 0 0 0 0 0 0 0 0 0 0 0 0 0 0 0 0 0 0 0 0 0 0 0 0 0 0 0 0 0
0 0 0 0 0 0 0 0 0 0 0 0 0 0 0 0 0 0 0 0 0 0 0 0 0 0 0 0 0 0 0 0 0 0 0 0 0 0 0 0 0 0 0
0 0 0 0 0 0 0 0 0 0 0 0 0 0 0 0 0 0 0 0 0 0 0 0 0 0 0 0 0 0 0 0 0 0 0 0 0 0 0 0 0 0 0
0 0 1 1 1 0 0 0 0 0 0 0 0 0 0 0 0 0 0 0 0 0 0 0 0 0 0 0 0 0 0 0 0 0 0 0 0 0 0 0 0 0 0
0 0 1 2 2 1 0 0 0 0 0 0 0 0 0 0 0 0 0 0 0 0 0 0 0 0 0 0 0 0 0 0 0 0 0 0 0 0 0 0 0 0 0
0 0 0 1 1 1 0 0 0 0 0 0 0 0 0 0 0 0 0 0 0 0 0 0 0 0 0 0 0 0 0 0 0 0 0 0 0 0 0 0 0 0 0
0 0 0 0 0 0 0 0 0 0 0 0 0 0 0 0 0 0 0 0 0 0 0 0 0 0 0 0 0 0 0 0 0 0 0 0 0 0 0 0 0 0 0
0 0 0 0 0 0 0 0 0 0 0 0 0 0 0 0 0 0 0 0 0 0 0 0 0 0 0 0 0 0 0 0 0 0 0 0 0 0 0 0 0 0 0
0 0 0 0 0 0 0 0 0 0 0 0 0 0 0 0 0 0 0 0 0 0 0 0 0 0 0 0 0 0 0 0 0 0 0 0 0 0 0 0 0 0 0
0 0 0 0 0 0 0 0 0 0 0 0 0 0 0 0 0 0 0 0 0 0 0 0 0 0 0 0 0 0 0 0 0 0 0 0 0 0 0 0 0 0 0
0 0 0 0 0 0 0 0 0 0 0 0 0 0 0 0 0 0 0 0 0 0 0 0 0 0 0 0 0 0 0 0 0 0 0 0 0 0 0 0 0 0 0
0 0 0 0 0 0 0 0 0 0 0 0 0 0 0 0 0 0 0 0 0 0 0 0 0 0 0 0 0 0 0 0 0 0 0 0 0 0 0 0 0 0 0
0 0 0 0 0 0 0 0 0 0 0 0 0 0 0 0 0 0 0 0 0 0 0 0 0 0 0 0 0 0 0 0 0 0 0 0 0 0 0 0 0 0 0
0 0 0 0 0 0 0 0 0 0 0 0 0 0 0 0 0 0 0 0 0 0 0 0 0 0 0 0 0 0 0 0 0 0 0 0 0 0 0 0 0 0 0
0 0 0 0 0 0 0 0 0 0 0 0 0 0 0 0 0 0 0 0 0 0 0 0 0 0 0 0 0 0 0 0 0 0 0 0 0 0 0 0 0 0 0
0 0 0 0 0 0 0 0 0 0 0 0 0 0 0 0 0 0 0 0 0 0 0 0 0 0 0 0 0 0 0 0 0 0 0 0 0 0 0 0 0 0 0
0 0 0 0 0 0 0 0 0 0 0 0 0 0 0 0 0 0 0 0 0 0 0 0 0 0 0 0 0 0 0 0 0 0 0 0 0 0 0 0 0 0 0
0 0 0 0 0 0 0 0 0 0 0 0 0 0 0 0 0 0 0 0 0 0 0 0 0 0 0 0 0 0 0 0 0 0 0 0 0 0 0 0 0 0 0
Wind_Speed
8 8 7 7 7 7 7 7 6 6 4 3 2 3 3 3 4 4 6 5 6 6 6 5 6 6 6 6 7 5 5 5 3 1 2 4 6 6 5 5 5 6 6
9 8 8 7 7 7 7 7 6 5 4 3 3 2 3 3 4 3 4 5 6 6 5 6 5 5 5 6 7 6 5 5 4 3 1 2 3 4 5 5 5 6 5
9 10 8 8 8 7 7 6 6 6 5 5 3 3 3 2 3 3 3 5 5 6 6 7 6 6 6 6 7 7 7 5 5 6 5 3 3 2 4 6 5 6 5
9 9 8 8 8 7 6 7 7 6 6 5 3 3 2 3 4 3 3 3 4 5 6 6 6 6 6 6 6 7 5 5 5 4 5 5 4 2 2 3 5 6 6
9 9 8 8 7 7 7 6 7 7 6 5 4 3 3 3 3 3 4 3 4 5 5 5 5 6 6 7 7 7 7 5 6 5 4 4 3 4 3 3 4 4 5
9 8 8 7 7 7 7 7 7 7 6 5 4 3 4 3 3 3 3 2 3 3 5 4 5 5 6 6 6 6 7 6 6 5 5 5 4 5 4 3 3 4 4
10 10 10 9 9 9 8 8 8 7 6 5 5 4 3 3 3 2 3 2 3 3 4 4 4 5 5 6 5 5 6 6 6 6 5 5 5 4 4 4 4 3 3
10 10 10 10 10 10 9 9 9 8 7 6 5 4 4 2 2 2 2 3 3 3 4 3 4 4 5 4 5 5 5 6 6 6 5 4 5 4 4 4 4 3 2
11 10 10 10 10 10 10 9 9 8 7 7 6 5 4 3 3 3 3 2 3 3 3 3 3 4 4 4 4 4 5 5 6 6 6 4 4 4 4 4 4 5 4
12 11 10 10 10 9 9 9 8 9 8 7 5 4 4 4 3 2 3 3 3 3 2 2 3 4 4 4 4 4 5 5 5 4 5 5 4 4 3 4 4 4 4
13 12 11 10 10 10 9 9 9 8 8 7 6 6 5 4 4 3 3 2 2 2 3 3 3 4 4 4 4 4 5 5 5 5 6 6 6 4 4 4 3 3 4
12 12 11 11 10 10 10 10 9 8 7 7 6 6 5 5 4 3 3 2 3 3 3 3 3 4 4 4 4 4 4 5 5 6 6 6 4 5 5 4 4 4 4
13 12 12 11 11 10 10 9 9 8 8 7 7 7 6 5 4 4 3 3 3 3 3 3 4 4 3 3 3 3 3 4 4 5 5 6 6 5 5 5 5 4 4
13 13 12 11 11 11 10 10 9 9 8 8 7 7 6 5 5 4 3 3 3 2 3 3 3 3 3 3 3 3 3 3 4 4 5 5 6 6 6 5 5 5 5
14 14 13 12 12 12 11 10 10 9 9 9 8 7 6 6 5 5 4 3 3 2 2 3 3 3 3 4 4 3 3 3 3 4 4 5 5 7 7 6 6 6 5
15 15 15 14 14 14 13 12 11 10 10 9 8 7 7 6 5 5 4 4 3 2 2 2 2 3 3 6 5 5 3 3 3 4 4 3 3 4 3 4 6 7 7
16 16 16 15 14 14 13 13 12 11 10 10 9 8 8 7 6 5 5 4 3 3 2 2 2 2 4 4 4 5 4 3 4 4 4 4 4 5 6 4 5 5 5
16 15 15 14 14 13 13 12 12 12 11 10 9 9 8 7 6 5 4 4 3 3 2 1 1 1 3 4 3 5 4 3 3 4 5 5 5 6 8 8 8 7 6
14 14 14 14 14 14 14 14 13 12 11 11 10 10 9 8 7 6 5 4 3 3 2 1 1 1 1 2 3 5 3 3 3 3 4 5 6 7 9 9 8 8 7
12 12 13 14 14 14 14 14 13 13 12 11 10 9 9 8 7 7 5 4 4 3 2 2 1 1 1 2 3 6 3 4 4 3 3 2 5 8 9 9 9 9 9
12 13 14 14 14 15 15 14 13 13 11 10 10 9 9 8 7 6 5 5 4 3 3 2 2 2 1 1 1 5 4 4 5 4 4 3 4 8 10 10 9 9 11
13 14 13 13 13 14 15 14 13 11 11 11 10 9 9 8 7 6 5 5 4 4 3 3 3 2 2 1 1 3 5 7 6 5 5 4 6 9 11 9 9 11 12
12 13 13 13 13 14 14 14 12 12 12 11 11 10 9 8 7 7 6 5 4 4 3 3 3 2 2 1 3 5 6 6 6 5 6 8 10 11 9 7 9 10 8
12 12 13 14 13 14 13 12 12 13 13 12 11 10 9 9 8 6 5 5 5 4 4 3 3 3 3 3 2 3 4 5 6 6 6 8 10 9 9 9 7 6 6
11 12 13 13 14 14 13 12 13 13 13 12 11 10 9 8 7 7 5 6 5 4 4 4 4 4 4 2 3 5 5 5 6 7 7 7 7 7 6 6 7 7 7
10 11 12 12 13 13 13 12 12 13 13 11 11 8 8 7 7 6 6 5 6 5 6 6 6 5 4 4 5 6 8 8 8 8 7 7 7 8 8 8 8 7 7
Wind_Direction
145 144 148 150 153 150 144 139 142 137 136 128 119 105 93 81 72 58 47 38 32 29 31 23 29 21 29 25 26 22 38 34 11 30 85 83 59 50 50 37 35 49 44
151 148 154 155 158 154 152 148 146 141 134 114 101 95 88 79 70 64 59 39 35 30 27 29 31 34 32 32 29 26 20 35 22 1 9 83 88 51 45 42 39 39 41
163 157 158 155 158 157 158 152 149 143 136 130 120 124 120 125 106 80 59 39 36 37 31 32 31 30 33 35 27 26 26 26 34 25 7 16 37 31 51 40 42 40 33
168 162 162 159 159 156 157 155 150 142 137 141 137 125 110 90 74 63 67 66 52 45 37 37 35 37 37 36 32 35 28 23 31 43 31 31 27 354 49 57 43 38 35
170 166 165 161 156 153 153 152 145 138 136 134 124 132 105 91 89 82 77 67 65 50 46 40 40 39 39 38 37 33 28 32 30 30 31 34 28 11 23 39 30 43 40
168 164 158 158 153 150 152 152 147 138 138 140 137 127 108 104 97 82 70 71 75 60 55 45 44 42 39 38 35 36 41 32 32 27 31 25 25 16 16 18 25 33 34
169 164 161 162 158 157 157 156 153 147 148 150 143 130 122 120 104 87 79 61 69 63 54 47 44 43 41 37 31 37 36 40 36 31 26 26 28 18 5 2 12 14 30
171 168 166 164 161 160 160 160 157 152 152 153 142 133 127 119 94 78 73 70 61 57 58 53 51 49 41 42 40 33 36 32 39 40 33 24 24 17 13 3 351 351 19
171 168 166 166 163 162 163 163 160 156 156 152 142 135 127 120 108 101 85 73 71 64 60 68 66 61 50 38 37 36 39 34 32 32 33 25 26 14 11 5 357 346 345
170 167 167 167 163 161 161 162 162 158 156 154 145 134 134 127 116 105 90 80 73 65 63 64 73 70 62 53 40 37 32 39 47 32 30 22 19 17 14 3 1 355 342
171 167 165 163 160 159 161 160 162 160 157 158 150 147 141 136 133 115 98 87 76 76 67 61 57 57 57 61 60 41 38 34 40 38 37 31 17 13 14 7 2 359 345
170 166 164 162 163 164 165 163 164 160 158 158 154 150 144 147 143 127 118 105 88 76 68 71 68 64 55 50 52 46 40 37 34 32 29 27 27 19 11 1 1 1 347
169 167 167 168 167 167 166 164 163 159 155 157 156 155 154 148 141 130 119 110 100 92 81 73 66 61 53 49 40 37 34 38 35 26 19 16 17 12 14 2 359 352 347
173 172 173 172 171 169 168 165 162 159 157 158 159 157 151 147 143 131 127 120 109 99 86 75 68 61 52 38 33 29 28 32 30 23 17 11 9 4 359 355 353 346 339
179 178 177 174 173 171 170 165 163 163 162 161 161 157 151 145 141 136 134 122 110 101 90 82 74 68 52 35 18 23 19 17 19 16 16 24 19 11 358 349 344 340 331
186 182 181 177 177 175 172 167 166 166 166 165 160 152 154 148 147 144 138 129 122 109 98 91 82 72 58 49 19 340 352 353 357 360 357 7 4 359 326 328 325 323 323
188 186 184 182 181 178 173 170 168 165 168 164 159 160 160 157 157 151 146 147 145 128 119 105 91 77 70 55 22 340 322 338 347 345 347 347 355 334 335 320 284 282 277
189 188 185 180 179 173 170 167 165 168 168 165 164 164 165 162 160 158 158 167 158 144 154 144 117 74 60 42 8 320 301 323 334 335 334 330 337 357 340 325 319 317 316
188 185 182 176 174 172 169 168 169 170 171 170 171 170 170 166 165 166 169 168 166 167 179 175 196 223 112 59 348 307 307 310 320 327 334 331 330 3 334 314 314 313 313
181 178 174 173 173 170 169 172 173 174 175 174 174 172 171 170 172 173 173 169 176 184 191 189 226 248 300 66 340 306 296 305 314 319 318 0 336 339 326 313 314 312 317
175 171 171 174 173 168 170 176 176 179 173 169 170 171 172 174 173 173 175 179 183 191 206 208 222 237 276 167 307 308 299 307 307 310 311 338 350 321 314 306 305 315 313
170 170 172 172 170 171 174 178 180 173 165 166 169 173 173 174 172 175 182 187 189 199 210 221 225 234 229 278 271 293 294 305 299 301 307 327 329 311 304 299 305 303 297
170 172 173 169 170 175 179 179 174 168 166 168 174 177 177 178 180 182 186 192 198 213 220 225 237 240 252 216 219 254 268 278 282 293 309 303 298 294 287 281 288 289 288
172 173 173 173 174 177 182 181 170 170 171 174 178 181 183 184 187 192 197 201 206 214 224 231 241 250 253 264 270 272 263 251 259 275 279 263 263 263 273 282 280 283 293
173 176 179 179 177 176 180 179 173 174 178 180 182 186 189 190 194 196 205 213 216 226 234 240 247 254 259 288 318 296 295 302 308 306 292 291 293 294 295 296 298 296 293
173 178 181 181 179 178 179 179 178 180 184 185 186 188 189 193 199 202 204 212 232 221 229 245 258 255 257 275 273 275 281 287 291 287 282 286 289 293 297 299 298 296 296